Regional Weather Roundup
Issued by NWS

Home | Current Version | Previous Version | Graphics & Text | Print | Product List | Glossary On
Versions: 1 2 3 4 5 6 7 8 9 10 11 12 13 14 15 16 17 18 19 20 21 22 23 24 25 26 27 28 29 30 31 32 33 34 35 36 37 38 39 40 41 42 43 44 45 46 47 48 49 50
004
ASUS45 KSLC 280210
RWRUT

UTAH REGIONAL WEATHER ROUNDUP
NATIONAL WEATHER SERVICE SALT LAKE CITY UT
800 PM MDT WED APR 27 2016

UTZ001>011-023>025-280300-

NORTHERN UTAH

CITY           SKY/WX    TMP DP  RH WIND       PRES   REMARKS
BRIGHAM CITY   CLOUDY    49  41  72 S3        29.75F
HILL AFB       CLOUDY    48  40  73 CALM      29.74S
LOGAN          CLOUDY    53  39  59 S15       29.73S
OGDEN          CLOUDY    50  41  71 N7        29.73S
PROVO AIRPORT  CLOUDY    46  41  81 SW8       29.75S
SALT LAKE CITY CLOUDY    54  40  59 NW10      29.72S
VERNAL         PTCLDY    52  34  50 SE8       29.76S
WENDOVER       CLOUDY    45  37  76 W12       29.76F
HEBER CITY     CLOUDY    46  36  66 CALM      29.74S

$$

UTZ012>022-026-027-280300-

SOUTHERN/CENTRAL UTAH

CITY           SKY/WX    TMP DP  RH WIND       PRES   REMARKS
BLANDING       CLOUDY    52  33  47 NW5       29.82F
BRYCE CANYON   CLOUDY    36  33  89 S5        29.79F WCI  32
CEDAR CITY     CLOUDY    41  38  89 CALM      29.74F
DELTA          CLOUDY    45  41  87 SE7       29.75S
HANKSVILLE     CLOUDY    52  41  66 N7        29.74F
MILFORD        LGT RAIN  47  39  74 S12       29.72F
MOAB/CYNLANDS  CLOUDY    57  34  41 W7        29.72R
PRICE          LGT RAIN  44  38  79 SE7       29.78R
ST GEORGE      CLOUDY    55  43  62 NE13G21   29.71F

$$

REGIONAL REPORTS     COLORADO/ARIZONA

CITY           SKY/WX    TMP DP  RH WIND       PRES   REMARKS
CRAIG, CO      CLOUDY    47  30  51 CALM      29.82R
GRAND JUNCTION PTCLDY    55  34  45 SE8       29.74S
RIFLE          CLOUDY    50  34  54 W3        29.78S
MONTROSE       CLOUDY    51  35  54 NW12      29.81R
CORTEZ         CLOUDY    53  30  41 SE6       29.79S
PAGE, AZ       CLOUDY    55  39  54 W7        29.72R
GRAND CANYON   LGT RAIN  48  30  49 SW8       29.80S
KINGMAN        MOCLDY    65  24  21 S14       29.66F
FLAGSTAFF      MOCLDY    48  25  40 SW14G37   29.81S

$$

REGIONAL REPORTS    NEVADA/IDAHO/WYOMING

CITY           SKY/WX    TMP DP  RH WIND       PRES   REMARKS
LAS VEGAS, NV  MOCLDY    68  31  25 NW13      29.57F
ELY            CLOUDY    40  35  83 NW9       29.75S WCI  34
ELKO           CLOUDY    43  38  82 SE5       29.78F
POCATELLO, ID  PTCLDY    51  40  65 W8        29.75S
BURLEY         MOCLDY    49  40  71 SW14      29.76R
EVANSTON, WY   CLOUDY    43  33  68 SE7       29.78S
ROCK SPRINGS   CLOUDY    40  31  70 E9        29.82F WCI  34
KEMMERER         N/A     39  32  75 E7        29.81R WCI  34

$$




USA.gov is the U.S. government's official web portal to all federal, state and local government web resources and services.